De Queen, AR

5:55 PM CST on February 17, 2018 (GMT -0600)
Helms Sevier County

Weather History for KDEQ - February, 2014

Change the Weather History Date:

Thursday, February 13, 2014

  Actual Average Record
Temperature  
Mean Temperature 41 °F 45 °F  
Max Temperature 61 °F 58 °F 82 °F (1962)
Min Temperature 21 °F 31 °F 13 °F (1958)
Degree Days  
Heating Degree Days 24 20  
Month to date heating degree days 374 283  
Since 1 July heating degree days 2515 2219  
Cooling Degree Days 0 0  
Month to date cooling degree days 0 0  
Year to date cooling degree days 0 1  
Moisture  
Dew Point 27 °F    
Average Humidity 65    
Maximum Humidity 100    
Minimum Humidity 29    
Precipitation  
Precipitation 0.00 in 0.13 in 1.53 in (1997)
Month to date precipitation 1.02 1.96  
Year to date precipitation 1.94 5.28  
Snow  
Snow 0.00 in - - ()
Month to date snowfall 1.1  
Since 1 July snowfall 1.2  
Snow Depth 0.00 in    
Sea Level Pressure  
Sea Level Pressure 29.96 in    
Wind  
Wind Speed 4 mph (South)    
Max Wind Speed 13 mph    
Max Gust Speed 20 mph    
Visibility 10 miles    
Events      
T = Trace of Precipitation, MM = Missing Value Source: NWS Daily Summary

Daily Weather History Graph

Daily Weather History Graph

Search for Another Location

Airport or City:

Trip Planner

Search our weather history database for the weather conditions in past years. The results will help you decide how hot, cold, wet, or windy it might be!

Date:

Astronomy

Feb. 13, 2014 Rise Set
Actual Time 7:04 AM CST 5:59 PM CST
Civil Twilight 6:38 AM CST 6:25 PM CST
Nautical Twilight 6:09 AM CST 6:54 PM CST
Astronomical Twilight 5:40 AM CST 7:23 PM CST
Moon 5:08 PM CST (2/13) 5:57 AM CST (2/13)
Length of Visible Light 11h 46m
Length of Day
10h 55m
Waxing Gibbous, 99% of the Moon is Illuminated
Feb 13
Waxing Gibbous
Feb 14
Full
Feb 22
Last Quarter
Mar 1
New
Mar 8
First Quarter

Hourly Weather History & Observations

Time (CST) Temp. Windchill Dew Point Humidity Pressure Visibility Wind Dir Wind Speed Gust Speed Precip Events Conditions
12:53 AM 26.1 °F - 24.1 °F 92% 30.01 in 10.0 mi Calm Calm - N/A   Clear
1:53 AM 26.1 °F - 24.1 °F 92% 30.02 in 10.0 mi Calm Calm - N/A   Clear
2:53 AM 23.0 °F 17.0 °F 21.9 °F 96% 30.01 in 10.0 mi East 4.6 mph - N/A   Clear
3:53 AM 23.0 °F 18.4 °F 21.9 °F 96% 30.00 in 10.0 mi ESE 3.5 mph - N/A   Clear
4:53 AM 23.0 °F 18.4 °F 21.0 °F 92% 30.00 in 10.0 mi East 3.5 mph - N/A   Clear
5:53 AM 21.9 °F - 21.0 °F 96% 30.01 in 9.0 mi Calm Calm - N/A   Clear
6:53 AM 23.0 °F - 21.0 °F 92% 30.02 in 9.0 mi Calm Calm - N/A   Clear
7:53 AM 24.1 °F - 23.0 °F 96% 30.01 in 9.0 mi Calm Calm - N/A   Clear
8:53 AM 30.9 °F - 27.0 °F 85% 30.03 in 10.0 mi Calm Calm - N/A   Clear
9:53 AM 37.9 °F - 30.0 °F 73% 30.05 in 10.0 mi Calm Calm - N/A   Clear
10:53 AM 45.0 °F 41.2 °F 30.9 °F 58% 30.05 in 10.0 mi Variable 6.9 mph - N/A   Clear
11:53 AM 51.1 °F - 30.9 °F 46% 30.01 in 10.0 mi SW 10.4 mph - N/A   Clear
12:53 PM 55.9 °F - 27.0 °F 33% 29.96 in 10.0 mi West 5.8 mph - N/A   Clear
1:53 PM 57.9 °F - 27.0 °F 31% 29.92 in 10.0 mi West 10.4 mph - N/A   Clear
2:53 PM 59.0 °F - 28.0 °F 31% 29.90 in 10.0 mi SSW 6.9 mph - N/A   Clear
3:53 PM 60.1 °F - 28.9 °F 31% 29.88 in 10.0 mi WSW 9.2 mph - N/A   Clear
4:53 PM 59.0 °F - 30.0 °F 33% 29.87 in 10.0 mi SW 11.5 mph - N/A   Clear
5:53 PM 55.0 °F - 30.9 °F 40% 29.88 in 10.0 mi SW 3.5 mph - N/A   Clear
6:53 PM 46.9 °F - 32.0 °F 56% 29.89 in 10.0 mi Calm Calm - N/A   Clear
7:53 PM 37.9 °F - 30.9 °F 76% 29.90 in 10.0 mi Calm Calm - N/A   Clear
8:53 PM 37.0 °F - 32.0 °F 82% 29.89 in 10.0 mi Calm Calm - N/A   Clear
9:53 PM 33.1 °F 30.0 °F 30.0 °F 89% 29.90 in 10.0 mi East 3.5 mph - N/A   Clear
10:53 PM 33.1 °F - 30.9 °F 92% 29.90 in 10.0 mi Calm Calm - N/A   Clear
11:53 PM 32.0 °F 27.5 °F 30.0 °F 92% 29.88 in 9.0 mi ENE 4.6 mph - N/A   Clear